Regional Weather Roundup
Issued by NWS

Home | Current Version | Previous Version | Text Only | Print | Product List | Glossary On
Versions: 1 2 3 4 5 6 7 8 9 10 11 12 13 14 15 16 17 18 19 20 21 22 23 24 25 26 27 28 29 30 31 32 33 34 35 36 37 38 39 40 41 42 43 44 45 46 47 48 49 50
809
ASUS43 KMKX 201721
RWRWI

WISCONSIN REGIONAL WEATHER ROUNDUP
NATIONAL WEATHER SERVICE MILWAUKEE/SULLIVAN WI
1100 AM CST MON NOV 20 2017

NOTE: "FAIR" INDICATES FEW OR NO CLOUDS BELOW 12,000 FEET WITH NO
SIGNIFICANT WEATHER AND/OR OBSTRUCTIONS TO VISIBILITY.

WIZ001-002-006>008-014>016-023>028-201800-
NORTHWEST WISCONSIN

CITY           SKY/WX    TMP DP  RH WIND       PRES   REMARKS
SUPERIOR ARPT  PTSUNNY   31  27  84 NE6       29.52F WCI  25
ASHLAND        CLOUDY    33  28  81 CALM      29.57F
HAYWARD        CLOUDY    38  26  62 S13       29.54F WCI  30
SIREN          CLOUDY    38  28  68 SE6       29.53F WCI  33
CUMBERLAND     CLOUDY    36  30  80 SE9       29.56F WCI  29
RICE LAKE      CLOUDY    37  29  75 SE9       29.59F WCI  30
CHETEK         CLOUDY    37  31  78 SE6       29.59F WCI  32
LADYSMITH      CLOUDY    38  30  70 SE9       29.60F WCI  32
EAU CLAIRE     CLOUDY    40  27  59 SE9       29.60F WCI  34
MENOMONIE      CLOUDY    42  29  61 SE8       29.57F
NEW RICHMOND   CLOUDY    39  29  67 S7        29.56F WCI  34
OSCEOLA        MOSUNNY   40  30  68 S8        29.58F WCI  34
$$

WIZ003>005-009-010-017-018-201800-
NORTH CENTRAL WISCONSIN

CITY           SKY/WX    TMP DP  RH WIND       PRES   REMARKS
MANITOWISH WTR CLOUDY    32  30  90 S7        29.59F WCI  26
ARBOR VITAE    CLOUDY    37  30  78 S8        29.60F WCI  30
WOODRUFF       CLOUDY    37  30  78 S8        29.60F WCI  30
RHINELANDER    CLOUDY    36  27  69 S7        29.62F WCI  30
EAGLE RIVER    CLOUDY    36  27  70 S7        29.59F WCI  31
LAND O LAKES   CLOUDY    33  29  82 S5        29.61F WCI  29
PHILLIPS       CLOUDY    36  28  73 S7        29.58F WCI  31
TOMAHAWK       CLOUDY    36  28  72 S3        29.63F
MEDFORD        CLOUDY    37  28  72 S9        29.62F WCI  30
MERRILL        CLOUDY    39  28  64 S6        29.64F
$$

WIZ029-030-035-036-043>047-201800-
CENTRAL WISCONSIN

CITY           SKY/WX    TMP DP  RH WIND       PRES   REMARKS
WAUSAU         CLOUDY    37  27  67 S8        29.66F WCI  31
MOSINEE        PTSUNNY   37  30  75 S12       29.68F WCI  30
MARSHFIELD     CLOUDY    40  27  59 S8        29.64F WCI  34
STEVENS POINT  CLOUDY    38  27  62 S7        29.68F WCI  33
WAUPACA        CLOUDY    43  28  55 S8        29.71F
WAUTOMA        CLOUDY    42  28  57 S9        29.71F
WISC RAPIDS    CLOUDY    42  29  59 SW7       29.69F
CAMP DOUGLAS   PTSUNNY   41  27  56 S12       29.68F
$$

WIZ011>013-019>022-031-037>040-048>050-201800-
NORTHEAST WISCONSIN

CITY           SKY/WX    TMP DP  RH WIND       PRES   REMARKS
ANTIGO         CLOUDY    36  28  73 SW7       29.66F WCI  30
SHAWANO        CLOUDY    42  29  60 SW3       29.70F
OCONTO         CLOUDY    39  28  63 SW6       29.73F WCI  35
STURGEON BAY   CLOUDY    39  28  64 S6        29.74F WCI  35
GREEN BAY      CLOUDY    39  31  72 SW12      29.73F WCI  32
MANITOWOC      CLOUDY    43  28  55 SW6       29.76F
APPLETON       MOSUNNY   39  25  56 SW16      29.72F WCI  30
CLINTONVILLE   CLOUDY    39  27  60 S7        29.71F WCI  34
OSHKOSH        CLOUDY    40  29  64 S14       29.73F WCI  32
$$

WIZ032>034-041-042-053>061-201800-
SOUTHWEST WISCONSIN

CITY           SKY/WX    TMP DP  RH WIND       PRES   REMARKS
LA CROSSE      CLOUDY    44  29  55 S15       29.66F
SPARTA         CLOUDY    45  30  57 S12       29.68F
VIROQUA        CLOUDY    44  31  61 S9        29.68F
BOSCOBEL       CLOUDY    47  29  49 SW14      29.74F
PRAIRIE DU CHI SUNNY     46  28  49 S7        29.73F
PLATTEVILLE    SUNNY     46  33  61 SW16      29.76F
$$

WIZ056-057-062-063-064-067-068-201800-
SOUTH CENTRAL WISCONSIN

CITY           SKY/WX    TMP DP  RH WIND       PRES   REMARKS
REEDSBURG      SUNNY     43  30  59 S7        29.72F
BARABOO/DELLS  SUNNY     43  28  55 SW8G17    29.72F
LONE ROCK      CLOUDY    45  31  58 S15       29.74F
MINERAL POINT  CLOUDY    45  34  65 S15G23    29.74F
MADISON        PTSUNNY   43  29  57 S13       29.75F
MIDDLETON      SUNNY     46  30  54 SW14G22   29.75F
WATERTOWN      SUNNY     43  31  62 SW15      29.78F
MONROE         SUNNY     43  30  61 S14       29.78F
JANESVILLE     MOSUNNY   46  30  53 SW12G18   29.81F
$$

WIZ051-052-058>065-066-070>072-201800-
SOUTHEAST WISCONSIN

CITY           SKY/WX    TMP DP  RH WIND       PRES   REMARKS
MILWAUKEE      PTSUNNY   46  29  51 SW15      29.81F
WAUKESHA       SUNNY     43  28  56 SW13      29.81F
MILWAUKEE/TIMM SUNNY     45  25  45 SW14      29.81F
RACINE         SUNNY     47  29  49 SW17G26   29.83F
BURLINGTON     SUNNY     48  35  60 SW17      29.82F
KENOSHA        SUNNY     46  29  51 SW15G29   29.82F
FOND DU LAC    CLOUDY    41  28  60 S14       29.74F
SHEBOYGAN      CLOUDY    43  29  57 SW12      29.75F
WEST BEND      SUNNY     43  28  56 SW12      29.77F
JUNEAU         SUNNY     40  30  65 S12       29.77F WCI  34
$$

LSZ147-162-201800-
LAKE SUPERIOR

STATION/POSITION TIME  TEMP    WIND        PRES    WAVE
                       AIR SEA DIR/SP/G            HT/PER
                 (UTC) (F)     (DEG/KT/KT) (MB)    (FT/S)
DEVILS ISLAND    1700   34     170/  4/  6 1002.0F
SAXON HARBOR     1640   35      60/  3/  3 1001.4F
$$

LMZ867-665-643>646-201800-
LAKE MICHIGAN

STATION/POSITION TIME  TEMP    WIND        PRES    WAVE
                       AIR SEA DIR/SP/G            HT/PER
                 (UTC) (F)     (DEG/KT/KT) (MB)    (FT/S)
N MID LAKE BUOY  1650   40 48  200/ 14/ 17 1008.5F   2/ 5
NORTHPORT PIER   1700   39     170/  5/ 11 1006.8
KEWAUNEE LAKESHO 1700   40     190/  6/  8 1006.7
SHEBOYGAN LAKESH 1700   42     220/ 13/ 15 1008.0F
PORT WASHINGTON  1630   45     260/ 11/ 16 1009.8F
MILWAUKEE LAKESH 1700   44     240/ 15/ 16   N/A
S MID LAKE BUOY  1650   44 49  240/ 21/ 25 1011.4F   7/ 6
KENOSHA   LAKESH 1700   46     250/ 15/ 20 1010.2
$$

TC  - TEMPERATURE IN CELSIUS
VSB - VISIBILITY IN STATUTE MILES
WCI - WIND CHILL INDEX
HX  - HEAT INDEX





USA.gov is the U.S. government's official web portal to all federal, state and local government web resources and services.